User: anonymous   Login
Location: Peebles
(55.6412°N, 3.1714°W)
Time: 03:52:36
(UTC+00:00)
Language:

Cosmos 1975 Rocket - Orbit

View from above orbital plane
View from above orbital plane
View from above satellite
View from above satellite

Ground track
Ground track

The orbit data is extracted from the following two-line orbital elements,

1 19574U 88093B   21333.55394810  .00000133  00000-0  13216-4 0  9995
2 19574  82.5337  64.3319 0022346 150.5141 220.3324 14.83402652790542
Epoch (UTC): 29 November 2021 13:17:41
Eccentricity: 0.0022346
inclination: 82.5337°
perigee height: 603 km
apogee height: 634 km
right ascension of ascending node: 64.3319°
argument of perigee: 150.5141°
revolutions per day: 14.83402652
mean anomaly at epoch: 220.3324°
orbit number at epoch: 79054

The dashed part of the orbit path shows where the satellite is in the earth's shadow,  

DLR